Location: Hyderabad
(17.3833°N, 78.4667°E)
Time: 12:49:23
(UTC+05:30)

H-2A R/B - Visible Passes

Search period start: 29 June 2017 00:00
Search period end: 09 July 2017 00:00
Orbit: 258 x 33087 km, 28.4° (Epoch: 27 June)

Date Brightness Start Highest point End Pass type
(mag) Time Alt. Az. Time Alt. Az. Time Alt. Az.
30 Jun 6.4 03:47:56 10° SSE 10:39:07 60° E 12:24:57 10° ENE visible
02 Jul 6.4 04:04:45 10° SSE 11:00:24 69° E 12:50:36 10° ENE visible
04 Jul 6.5 04:25:53 10° S 11:19:36 77° ENE 13:15:41 10° ENE visible
06 Jul 6.5 04:48:01 10° S 11:31:11 84° ENE 13:40:20 10° ENE visible
08 Jul 6.6 05:10:36 10° SSW 11:15:37 90° SW 14:04:37 10° ENE visible
